Weather in Maloshujka

Russia / Arkhangel'skaya Oblast'     63°42′26″N   37°27′11″E
temp.,
°C
wind,
m/s
gust,
m/s
humid.,
%
clouds,
%
prec.,
mm/h
press.,
hPa
HPBL,
m
16 may, sun
sun1600:00+8nw2287100 0.0 100863
03:00+9nne2584100 0.0 100587
06:00+10nne3688100 0.8 1004226
09:00+9nne3795100 2.3 1004258
12:00+9nnw4895100 1.3 1005269
15:00+8nnw51198100 3.5 1006302
18:00+6nnw41098100 1.2 1007240
21:00+5nw3696100 1.9 1009173
17 may, mon
mon1700:00+4wnw3697100 0.1 1010152
03:00+4wnw3695100 0.1 1012163
06:00+5nw2490100 0.0 1013141
09:00+7nnw228089 0.0 1015223
12:00+11nne216621 0.0 1016334
15:00+15ne225630 0.0 1016548
18:00+15ene345819 0.0 1016708
21:00+13ese3972100 0.0 1016162
18 may, tue
tue1800:00+12se41175100 0.0 1016215
03:00+11se41181100 0.0 1016230
06:00+13se51277100 0.0 1015347
09:00+17se51264100 0.0 1014640
12:00+20se61055100 0.0 1013931
15:00+21se61256100 0.0 10121029
18:00+22se6125575 0.0 10091121
21:00+20se6146485 0.0 1009751
19 may, wed
wed1900:00+18sse61669100 0.0 1008624
03:00+17sse5147463 0.0 1007408
06:00+17sse512725 0.0 1006390
09:00+22sse6125211 0.0 1005750
12:00+26sse715375 0.0 10032064
15:00+27s7183759 0.0 10022610
18:00+24s81449100 0.3 10021758
21:00+17ssw51283100 3.1 1003423
20 may, thu
thu2000:00+16se5128299 0.2 1001424
03:00+14sse6148489 0.2 1000580
06:00+14s613745 0.0 10011039
09:00+17s6115549 0.0 10011215
12:00+20sse693999 0.0 9982049
15:00+17s6115094 0.0 9971454
18:00+16ssw610595 0.3 9951239
21:00+11ssw6127163 0.3 9961039